Change the Weather History Date:

Wednesday, November 9, 2011

  Actual Average Record
Temperature  
Mean Temperature 30 °F -  
Max Temperature 38 °F 60 °F 77 °F (2012)
Min Temperature 21 °F 29 °F 19 °F (2000)
Degree Days  
Heating Degree Days 35 21  
Month to date heating degree days 222 170  
Since 1 July heating degree days 584 615  
Cooling Degree Days 0 0  
Month to date cooling degree days 0 0  
Year to date cooling degree days 1530 1028  
Moisture  
Dew Point 21 °F    
Average Humidity 76    
Maximum Humidity 88    
Minimum Humidity 63    
Precipitation  
Precipitation 0.00 in 0.02 in 0.69 in (2004)
Month to date precipitation 0.82 0.20  
Year to date precipitation 5.62 16.66  
Sea Level Pressure  
Sea Level Pressure 30.47 in    
Wind  
Wind Speed 10 mph (NW)    
Max Wind Speed 16 mph    
Max Gust Speed 18 mph    
T = Trace of Precipitation, MM = Missing Value Source: NWS Daily Summary

Daily Weather History Graph

Daily Weather History Graph

Search for Another Location

Airport or City:

Trip Planner

Search our weather history database for the weather conditions in past years. The results will help you decide how hot, cold, wet, or windy it might be!

Date:

Astronomy

Nov. 09, 2011 Rise Set
Actual Time 6:23 AM MST 4:44 PM MST
Civil Twilight 5:55 AM MST 5:12 PM MST
Nautical Twilight 5:24 AM MST 5:43 PM MST
Astronomical Twilight 4:53 AM MST 6:14 PM MST
Moon 3:58 PM MST (11/9) 5:20 AM MST (11/9)
Length of Visible Light 11h 16m
Length of Day
10h 21m
Waxing Gibbous, 99% of the Moon is Illuminated
Nov 9
Waxing Gibbous
Nov 10
Full
Nov 18
Last Quarter
Nov 24
New
Dec 2
First Quarter

Hourly Weather History & Observations

Time (MST) Temp. Windchill Dew Point Humidity Pressure Visibility Wind Dir Wind Speed Gust Speed Precip Events Conditions
12:56 AM 24.1 °F 12.0 °F 19.9 °F 84% 30.34 in - NW 13.8 mph - N/A   Unknown
1:56 AM 24.1 °F 12.5 °F 19.9 °F 84% 30.36 in - NW 12.7 mph - N/A   Unknown
2:56 AM 23.0 °F 10.6 °F 19.0 °F 85% 30.38 in - NW 13.8 mph - N/A   Unknown
3:56 AM 23.0 °F 10.6 °F 19.0 °F 85% 30.39 in - NW 13.8 mph - N/A   Unknown
4:56 AM 24.1 °F 12.0 °F 19.0 °F 81% 30.40 in - NW 13.8 mph - N/A   Unknown
5:56 AM 21.9 °F 9.8 °F 18.0 °F 85% 30.43 in - NW 12.7 mph - N/A   Unknown
6:56 AM 21.9 °F 10.4 °F 17.1 °F 82% 30.48 in - NW 11.5 mph - N/A   Unknown
7:56 AM 25.0 °F 13.6 °F 19.0 °F 78% 30.53 in - NW 12.7 mph - N/A   Unknown
8:56 AM 28.9 °F 19.8 °F 21.9 °F 75% 30.54 in - NW 10.4 mph - N/A   Unknown
9:56 AM 33.1 °F 25.5 °F 25.0 °F 72% 30.54 in - NW 9.2 mph - N/A   Unknown
10:56 AM 36.0 °F 29.0 °F 27.0 °F 70% 30.53 in - NW 9.2 mph - N/A   Unknown
11:56 AM 37.0 °F 29.8 °F 27.0 °F 67% 30.49 in - WNW 10.4 mph - N/A   Unknown
12:56 PM 37.0 °F 29.8 °F 27.0 °F 67% 30.48 in - WNW 10.4 mph - N/A   Unknown
1:56 PM 37.0 °F 30.4 °F 28.0 °F 70% 30.47 in - NW 9.2 mph - N/A   Unknown
2:56 PM 37.0 °F 31.0 °F 28.9 °F 73% 30.48 in - NW 8.1 mph - N/A   Unknown
3:56 PM 35.1 °F 27.9 °F 25.0 °F 67% 30.48 in - WNW 9.2 mph - N/A   Unknown
4:56 PM 28.9 °F 20.4 °F 23.0 °F 78% 30.50 in - NW 9.2 mph - N/A   Unknown
5:56 PM 28.0 °F 19.3 °F 19.9 °F 72% 30.50 in - WNW 9.2 mph - N/A   Unknown
6:56 PM 24.1 °F 18.2 °F 18.0 °F 77% 30.51 in - WNW 4.6 mph - N/A   Unknown
7:56 PM 26.1 °F 19.4 °F 16.0 °F 66% 30.50 in - West 5.8 mph - N/A   Unknown
8:56 PM 24.1 °F 17.0 °F 17.1 °F 75% 30.49 in - West 5.8 mph - N/A   Unknown
9:56 PM 25.0 °F 17.1 °F 19.0 °F 78% 30.49 in - West 6.9 mph - N/A   Unknown
10:56 PM 27.0 °F 20.5 °F 19.0 °F 72% 30.45 in - WNW 5.8 mph - N/A   Unknown
11:56 PM 25.0 °F - 16.0 °F 69% 30.45 in - Calm Calm - N/A   Unknown